Location: Haulchin
(50.3172°N, 3.4360°E)
Time: 20:12:49
(UTC+00:00)

Cosmos 2333 Rocket - Pass Details

Date: 16 August 2024
Orbit: 838 x 863 km, 70.8° (Epoch: 09 September)

Event Time Altitude Azimuth Distance (km) Brightness Sun altitude
Exits shadow 22:14:36 21° 89° (E) 1,824 3.7 -23.0°
Drops below altitude 10° 22:18:05 10° 53° (NE) 2,511 4.8 -23.2°
Sets 22:21:04 0° 39° (NE) 3,454 5.7 -23.4°
